Location: Gokavaram
(16.9752°N, 81.0696°E)
Time: 05:42:57
(UTC+00:00)

PSLV R/B - Pass Details

Date: 15 May 2026
Orbit: 558 x 586 km, 98.0° (Epoch: 6 June)

Event Time Altitude Azimuth Distance (km) Brightness Sun altitude
Exits shadow 13:57:55 - 169° (S) 2,202 6.0 -13.6°
Reaches altitude 10° 13:58:39 10° 170° (S) 1,898 5.7 -13.8°
Maximum altitude 14:02:46 84° 259° (W) 592 3.5 -14.7°
Drops below altitude 10° 14:06:55 10° 347° (NNW) 1,906 6.6 -15.6°
Sets 14:09:04 0° 348° (NNW) 2,807 7.5 -16.1°
